www.pogodaiklimat.ru

Погода и климат >> Архив погоды >> Россия >> Краснодарский край >> Туапсе


АРХИВ ПОГОДЫ в Туапсе

Время (UTC), дата Ветер
(напр.,м/с)
 
Видим.   Явления Облачность Т
(С)
Тd
(С)
f
(%)
Тe
(С)
Тes
(С)
Комфортность P
(гПа)
Po
(гПа)
Тmin
(С)
Tmax
(С)
R
(мм)
R24
(мм)
S
(см)
00 21.05 В 3 10 км 10/8 1000 м
[Cb cap Ci]
+13.4 +9.6 78 +12 +12 по сезону 1010.1 1002.7
03 21.05 штиль 0 20 км 8/4 1000 м
[Cb cap Ci fib]
+13.2 +9.4 78 +13 +13 прохладно 1009.8 1002.5 +13.2
06 21.05 Ю 1 20 км 10/8 600 м
[Cb cap Ci fib]
+17.0 +11.0 68 +18 +20 по сезону 1010.1 1002.9 +13.1
09 21.05 ЮВ 2 20 км 5/5 1000 м
[Cu med, cong Ci fib]
+16.8 +11.1 69 +17 +26 по сезону 1010.5 1003.2
12 21.05 ЮЗ 2 20 км 8/6 1000 м
[Cb cap Ac trans Ci fib]
+19.2 +11.7 62 +21 +25 комфорт 1010.8 1003.6
15 21.05 ЮВ 3 20 км 10/1 1000 м
[Sc Ci fib]
+15.3 +10.4 73 +15 +16 прохладно 1010.4 1003.1 +19.7
18 21.05 В 1 10 км 10/0
[Ci fib]
+14.7 +10.2 74 +15 +15 по сезону 1011.1 1003.8
21 21.05 С 1 10 км 10/3 1000 м
[Sc Ci fib]
+13.4 +10.2 81 +14 +14 по сезону 1010.5 1003.2
00 22.05 С 1 10 км 10/3 1000 м
[Sc Ac trans Ci fib]
+13.5 +9.6 77 +14 +14 по сезону 1009.7 1002.4
03 22.05 СВ 1 20 км 10/6 600 м
[Cb cap Ac As]
+13.5 +9.2 75 +14 +14 по сезону 1009.4 1002.1 +12.9
06 22.05 СВ 1 20 км {ливн. осадки} 10/8 600 м
[Cb cap Ac As]
+14.5 +10.3 76 +15 +16 прохладно 1009.7 1002.4 +12.7
09 22.05 штиль 0 10 км слабый ливневой дождь 10/8 600 м
[Cb cap Ac As]
+15.1 +12.4 84 +15 +16 прохладно 1010.0 1002.7
12 22.05 ЮВ 2 10 км слабый ливневой дождь 10/8 600 м
[Cb cap Ac As]
+12.5 +10.3 86 +12 +12 очень
холодно
1010.9 1003.6
15 22.05 ЮЗ 1 4000 м слабый ливневой дождь 10/10 600 м
[Cb cap]
+12.8 +11.4 91 +13 +13 холодно 1011.3 1003.9 +15.6 10
18 22.05 СВ 1 4000 м слабый ливневой дождь 10/10 600 м
[Cb cap]
+12.5 +11.2 92 +12 +12 прохладно 1012.4 1005.0
21 22.05 С 1 10 км {ливн. осадки} 10/10 600 м
[Cb cap]
+12.6 +11.1 91 +13 +13 по сезону 1012.7 1005.3
00 23.05 С 2 10 км {ливн. осадки} 8/6 1000 м
[Cb cap Ci sp]
+11.8 +10.2 90 +11 +11 прохладно 1011.9 1004.5
03 23.05 С 1 20 км 9/6 1000 м
[Cb cap Ac trans Ci sp]
+12.5 +10.0 85 +12 +13 прохладно 1012.4 1005.0 +11.4 5
06 23.05 СВ 1 20 км 10/3 1000 м
[Cu med, cong Ac cast Ci sp]
+15.5 +10.1 70 +16 +20 по сезону 1013.0 1005.7
09 23.05 З 1 20 км 10/8 1000 м
[Cb cap Ci sp]
+16.6 +10.6 68 +17 +21 по сезону 1013.2 1005.9
12 23.05 З 1 10 км слабый ливневой дождь 10/10 600 м
[Cb cap]
+14.3 +11.9 85 +15 +15 холодно 1014.0 1006.7
15 23.05 С 1 4000 м ливневой дождь 10/10 600 м
[Cb cap]
+12.9 +11.3 90 +13 +13 холодно 1014.7 1007.3 +19.3 8
18 23.05 В 3 10 км {ливн. осадки} 10/10 600 м
[Cb cap]
+13.0 +10.6 85 +12 +12 прохладно 1016.3 1008.9
21 23.05 ЮЗ 2 10 км в посл. час ливневой дождь 10/8 600 м
[Cb cap Ci sp]
+12.6 +10.9 89 +12 +12 прохладно 1017.4 1009.9
00 24.05 З 1 10 км {ливн. осадки} 10/6 1000 м
[Cb cap Ci sp]
+12.2 +10.9 92 +12 +12 по сезону 1017.2 1009.8
03 24.05 СВ 1 10 км слабый ливневой дождь 10/8 600 м
[Cb cap Ci sp]
+12.1 +10.2 88 +12 +12 прохладно 1017.7 1010.3 +12.1 7
06 24.05 СВ 1 20 км {ливн. осадки} 9/6 1000 м
[Cb cap Ci]
+13.5 +10.4 82 +14 +18 прохладно 1018.3 1010.9 +12.0
09 24.05 ЮЗ 2 20 км 9/4 1000 м
[Cb cap Ci]
+15.1 +11.3 78 +15 +24 прохладно 1018.7 1011.3
12 24.05 ЮЗ 1 20 км в посл. час ливневой дождь 9/8 1000 м
[Cb cap Ci]
+16.1 +11.4 74 +17 +20 прохладно 1019.2 1011.9
15 24.05 ЮВ 1 10 км слабый ливневой дождь 9/8 600 м
[Cb cap Ci]
+14.0 +9.3 73 +14 +15 прохладно 1019.5 1012.1 +16.3 2
18 24.05 СВ 1 4000 м слабый ливневой дождь 10/8 600 м
[Cb cap Ci]
+12.7 +10.8 88 +13 +13 прохладно 1019.9 1012.5
21 24.05 С 1 4000 м слабый ливневой дождь 10/10 600 м
[Cb cap]
+12.2 +9.8 85 +12 +12 прохладно 1019.9 1012.5
00 25.05 С 1 10 км {ливн. осадки} 10/8 1000 м
[Cb cap Ci]
+12.0 +9.5 85 +12 +12 по сезону 1019.1 1011.7
03 25.05 С 1 20 км 9/6 1000 м
[Cb cap Ci fib]
+12.3 +9.3 82 +12 +13 прохладно 1018.9 1011.5 +11.9 0.5
06 25.05 ЮЗ 1 20 км 4/1 1000 м
[Cu med, cong Ac trans Ci fib]
+17.4 +9.2 59 +18 +27 по сезону 1018.7 1011.4
09 25.05 ЮЗ 2 20 км 8/3 1000 м
[Cu med, cong Ac trans]
+19.0 +10.0 56 +20 +28 тепло 1018.6 1011.3
12 25.05 ЮЗ 2 20 км 4/1 1000 м
[Cu med, cong Ci fib]
+20.5 +9.3 49 +23 +34 комфорт 1018.3 1011.1
15 25.05 ЮЗ 1 20 км 5/0
[Ci sp]
+18.9 +9.8 55 +21 +23 комфорт 1017.3 1010.0 +20.8
18 25.05 СВ 1 10 км ясно +14.4 +8.7 69 +15 +15 по сезону 1016.9 1009.6
21 25.05 С 1 10 км ясно +14.0 +8.2 68 +14 +14 по сезону 1016.6 1009.2
00 26.05 СВ 2 10 км ясно +11.5 +7.9 79 +10 +10 прохладно 1016.2 1008.7
03 26.05 СВ 2 20 км ясно +12.3 +7.2 71 +11 +12 холодно 1015.6 1008.2 +11.2
06 26.05 Ю 1 20 км 3/0
[Ci fib]
+19.2 +9.1 52 +21 +32 комфорт 1014.9 1007.7
09 26.05 ЮЗ 2 20 км 3/0
[Ac trans Ci fib]
+23.1 +7.2 36 +24 +39 комфорт 1014.9 1007.8
12 26.05 ЮЗ 2 20 км 5/1 1000 м
[Cu med, cong Ac trans Ci]
+24.6 +8.9 37 +25 +35 комфорт 1013.7 1006.6
15 26.05 З 2 20 км 9/3 1000 м
[Cu med, cong Ac trans Ci]
+20.7 +5.2 36 +22 +23 комфорт 1012.0 1004.9 +25.1
18 26.05 СВ 1 10 км 8/3 1000 м
[Sc Ac cast Ci sp]
+18.1 +7.1 49 +19 +19 тепло 1011.7 1004.4
21 26.05 С 2 10 км 6/3 1000 м
[Sc Ac trans Ci sp]
+16.3 +7.0 54 +16 +16 по сезону 1011.4 1004.1
00 27.05 штиль 0 10 км 10/6 1000 м
[Cu Sc Ac trans Ci sp]
+15.0 +7.7 62 +15 +15 по сезону 1011.3 1004.0
03 27.05 СВ 1 20 км 10/6 1000 м
[Cu Sc Ac trans Ci sp]
+14.1 +8.3 68 +15 +15 по сезону 1011.2 1003.9 +14.1
06 27.05 В 1 20 км 10/6 1000 м
[Cb cap Ac cast Ci fib]
+20.9 +8.1 44 +23 +26 комфорт 1011.4 1004.2
09 27.05 ЮЗ 2 20 км 9/3 1000 м
[Sc diur, vesp Ac cast Ci fib]
+22.0 +12.9 56 +25 +32 комфорт 1012.1 1005.0
12 27.05 ЮЗ 2 20 км 5/3 1000 м
[Cu med, cong Ci fib]
+22.9 +14.8 60 +27 +36 душно 1011.4 1004.3
15 27.05 Ю 1 20 км 8/3 1000 м
[Cu med, cong Ac cast Cc]
+22.2 +13.9 59 +25 +27 комфорт 1011.0 1003.9 +23.4
18 27.05 С 1 10 км 3/0
[Ci sp]
+17.1 +11.7 71 +18 +18 тепло 1012.4 1005.2

 

Местоположение метеостанции Туапсе (Краснодарский край, Россия): широта 44.10 долгота 39.07 высота над уровнем моря 62 м.

В архиве по умолчанию представлена погода в Туапсе за последнюю неделю. Архивные данные за месяц целиком и за предыдущие месяцы, начиная с января 2011 года, Вы можете получить, выбрав интересующий диапазон дат из раскрывающегося списка и нажав кнопку "Ввод!".

Внимание! Время в таблицах - всемирное. Для получения местного времени необходимо прибавить поправку, которая в Туапсе равна 3 ч.

Смотрите также архив погоды в соседних городах и на ближайших метеорологических станциях:

Погода в Горном (Краснодарский край, Россия) (26 км)
Погода в Джубге (Краснодарский край, Россия) (38 км)
Погода в Горячем Ключе (Краснодарский край, Россия) (59 км)
Погода в Сочи (Краснодарский край, Россия) (81 км)
Погода в Гузерипле (Адыгея, Россия) (85 км)
Погода в Шунтуке (Адыгея, Россия) (93 км)
Погода в Геленджике (Краснодарский край, Россия) (95 км)
Погода в Кепше (Краснодарский край, Россия) (95 км)
Погода в Белореченске (Краснодарский край, Россия) (98 км)
Погода в Майкопе (Адыгея, Россия) (99 км)

Пояснения к столбцам:

Ветер - указаны скорость ветра в м/с - средняя за 10 мин, порывы в срок и между сроками (в фигурных скобках) и направление, откуда дует ветер: С - северный, СВ - северо-восточный, В - восточный, ЮВ - юго-восточный, Ю - южный, ЮЗ - юго-западный, З - западный, СЗ - северо-западный.
Видимость - горизонтальная дальность видимости в метрах или километрах. При видимости от 1 до 10 км при отсутствии осадков обычно наблюдается дымка, при ухудшении видимости до 1 км и менее - туман. В сухую погоду видимость может ухудшаться дымом, пылью или мглою.
Явления - указаны атмосферные явления, наблюдавшиеся в срок или в последний час перед сроком; фигурными скобками обозначены явления, наблюдавшиеся между сроками (за 1-3 часа до срока); квадратными скобками обозначены град или гололедные отложения с указанием их диаметра в мм.
Облачность - указаны через наклонную черту общая и нижняя облачность в баллах и высота нижней границы облаков в метрах; квадратными скобками обозначены формы облаков: Ci - перистые, Cs - перисто-слоистые, Cc - перисто-кучевые, Ac - высококучевые, As - высокослоистые, Sc - слоисто-кучевые, Ns - слоисто-дождевые, Cu - кучевые, Cb - кучево-дождевые. Подробнее классификацию облаков см. в Атласе облаков (PDF).
T - Температура воздуха - температура, измеренная на высоте 2 м над землей.
Td - Температура точки росы - температура, при понижении до которой содержащийся в воздухе водяной пар достигнет насыщения.
f - Относительная влажность воздуха - влажноcть воздуха, измеренная на высоте 2 м над землей.
Te - Эффективная температура - температура, которую ощущает одетый по сезону человек в тени. Характеристика душности погоды. При расчете учитывается влияние влажности воздуха и скорости ветра на теплоощущения человека.
Tes - Эффективная температура на солнце - температура, которую ощущает человек, с поправкой на солнечный нагрев. Характеристика знойности погоды. Зависит от высоты солнца над горизонтом, облачности и скорости ветра. Ночью, в пасмурную погоду, а также при ветре 12 м/с и более поправка равна нулю.
P - Атмосферное давление - приведенное к уровню моря атмосферное давление.
Po - Атмосферное давление - измеренное на уровне метеостанции атмосферное давление.
Tmin - Минимальная температура - минимум температуры воздуха на высоте 2 м над землей.
Tmax - Максимальная температура - максимум температуры воздуха на высоте 2 м над землей.
R - Количество осадков - Количество выпавших осадков за период времени, мм. При наведении курсора мыши на число - период времени, за который выпало указанное количество осадков.
R24 - Количество осадков - Количество выпавших осадков за 24 часа, мм.
S - Снежный покров - Высота снежного покрова, см. При наведении курсора мыши на число - состояние снежного покрова и степень покрытия местности в баллах.